Location: Unspecified
(47.4992°N, 121.7766°W)
Time: 08:50:50
(UTC-08:00)

CZ-3 Stage 3 - Visible Passes

Search period start: 27 January 2021 00:00
Search period end: 06 February 2021 00:00
Orbit: 403 x 34782 km, 31.0° (Epoch: 27 January)

Date Brightness Start Highest point End Pass type
(mag) Time Alt. Az. Time Alt. Az. Time Alt. Az.
27 Jan 7.4 15:03:04 10° SSW 21:00:12 20° SE 23:16:44 10° SE visible
28 Jan 8.5 22:09:41 10° W 23:20:52 45° SW 04:14:04 10° WSW visible
29 Jan 8.0 18:26:51 10° WSW 18:53:45 62° S 02:59:16 10° SSW visible
30 Jan 7.5 14:51:58 10° SSW 20:48:23 19° SE 23:01:42 10° SE visible
31 Jan 8.6 21:58:30 10° W 23:08:15 45° SW 03:59:12 10° WSW visible
01 Feb 8.0 18:15:47 10° WSW 18:41:57 62° S 02:45:43 10° SSW visible
02 Feb 7.6 14:40:54 10° SSW 20:36:36 19° SE 22:46:20 10° SE visible
03 Feb 8.6 21:47:20 10° W 22:55:41 44° SW 03:44:19 10° WSW visible
04 Feb 8.0 18:04:42 10° WSW 18:30:09 61° S 02:32:04 10° SSW visible
05 Feb 7.6 14:29:49 10° SSW 20:24:49 18° SE 22:30:36 10° SE visible
